AI5BL Weather Reports


time (UTC)temp
C
wind
direction
speed
KPH
gust
KPH
rain 1hr
cm
rain 24hr
cm
rain mn
cm
humidity
%
barometer
mb
20260509192933 21 94 0.0 0.0 0.00 2.51 2.51 91 1014.5
20260509192429 21 93 0.0 0.0 0.00 2.51 2.51 93 1014.3
20260509191924 21 101 0.0 1.6 0.00 2.51 2.51 93 1014.2
20260509191420 21 96 0.0 0.0 0.00 2.51 2.51 93 1014.0
20260509190916 20 88 0.0 0.0 0.00 2.51 2.51 93 1014.1
20260509190414 20 129 1.6 1.6 0.00 2.51 2.51 91 1014.1
20260509185911 21 107 0.0 0.0 0.00 2.51 2.51 92 1014.2
20260509185408 20 50 1.6 1.6 0.00 2.51 2.51 93 1014.2
20260509184905 20 108 0.0 0.0 0.00 2.51 2.51 95 1014.2
20260509184401 20 110 0.0 1.6 0.00 2.51 2.51 94 1014.1
20260509183859 20 105 0.0 1.6 0.00 2.51 2.51 94 1014.0
20260509183353 21 80 0.0 1.6 0.00 2.51 2.51 91 1014.2
20260509182849 20 82 0.0 0.0 0.00 2.51 2.51 93 1014.2
20260509182347 20 102 0.0 1.6 0.00 2.51 2.51 95 1014.1
20260509181844 20 98 0.0 1.6 0.00 2.51 2.51 93 1014.1
20260509181341 20 88 0.0 1.6 0.00 2.51 2.51 95 1014.1
20260509180839 20 97 0.0 0.0 0.00 2.51 2.51 96 1014.0
20260509180334 20 106 0.0 1.6 0.00 2.51 2.51 96 1013.8
20260509175832 20 92 0.0 1.6 0.00 2.51 2.51 97 1014.0
20260509175328 20 99 0.0 0.0 0.00 2.51 2.51 97 1014.0
20260509174823 19 101 0.0 0.0 0.00 2.51 2.51 97 1014.0
20260509174319 19 84 0.0 0.0 0.00 2.51 2.51 99 1014.1
20260509173816 19 99 0.0 1.6 0.00 2.51 2.51 99 1014.1
20260509173311 19 102 0.0 0.0 0.00 2.51 2.51 99 1014.3
20260509172807 19 97 0.0 0.0 0.00 2.51 2.51 99 1014.4
20260509172306 18 94 0.0 0.0 0.00 2.51 2.51 99 1014.8
20260509171800 19 104 0.0 0.0 0.00 2.51 2.51 99 1014.9
20260509171256 18 102 0.0 0.0 0.00 2.51 2.51 99 1015.2
20260509170753 18 96 0.0 0.0 0.00 2.51 2.51 99 1015.2
20260509170249 19 77 0.0 0.0 0.00 2.51 2.51 99 1015.1
20260509165748 19 90 0.0 0.0 0.00 2.51 2.51 99 1015.3
20260509165243 18 109 0.0 1.6 0.00 2.51 2.51 99 1015.5
20260509164739 19 95 0.0 0.0 0.00 2.51 2.51 99 1015.6
20260509164235 18 97 0.0 0.0 0.00 2.51 2.51 99 1015.5
20260509163732 18 102 0.0 0.0 0.00 2.51 2.51 99 1015.5
20260509163229 18 106 0.0 0.0 0.00 2.51 2.51 99 1015.4
20260509162727 18 74 0.0 1.6 0.00 2.51 2.51 99 1015.3
20260509162221 18 95 0.0 0.0 0.00 2.51 2.51 99 1015.3
20260509161717 18 105 0.0 0.0 0.00 2.51 2.51 99 1015.2
20260509161214 18 90 0.0 0.0 0.00 2.51 2.51 99 1015.0
20260509160709 17 99 0.0 0.0 0.00 2.51 2.51 99 1014.9
20260509160206 17 65 0.0 1.6 0.00 2.51 2.51 99 1014.9
20260509155701 17 90 0.0 0.0 0.00 2.51 2.51 99 1015.0
20260509155157 18 57 1.6 1.6 0.00 2.51 2.51 99 1015.0
20260509154653 17 83 0.0 0.0 0.00 2.51 2.51 99 1015.1
20260509154151 17 64 1.6 1.6 0.00 2.51 2.51 99 1015.2
20260509153647 17 59 0.0 1.6 0.00 2.51 2.51 99 1014.9
20260509153144 -17 0.0 0.0 0.00 0.00 0.00 1015.2
20260509152640 17 67 1.6 3.2 0.00 2.51 2.51 99 1015.2
20260509152137 17 67 1.6 3.2 0.00 2.51 2.51 99 1014.9
20260509151634 17 67 1.6 3.2 0.00 2.51 2.51 99 1014.9
20260509151131 17 67 1.6 3.2 0.00 2.51 2.51 99 1014.8
20260509150629 17 67 1.6 3.2 0.00 2.51 2.51 99 1014.8
20260509150127 17 67 1.6 3.2 0.00 2.51 2.51 99 1015.0
20260509145623 17 67 1.6 3.2 0.00 2.51 2.51 99 1014.8
20260509145118 17 67 1.6 3.2 0.00 2.51 2.51 99 1014.5
20260509144615 17 67 1.6 3.2 0.00 2.51 2.51 99 1015.0
20260509144112 17 67 1.6 3.2 0.00 2.51 2.51 99 1014.8
20260509143609 17 67 1.6 3.2 0.00 2.51 2.51 99 1014.9
20260509143107 17 67 1.6 3.2 0.30 2.51 2.51 99 1014.2
20260509142602 17 128 0.0 1.6 0.00 2.46 2.46 99 1014.4
20260509142058 17 128 0.0 1.6 0.00 2.46 2.46 99 1014.6
20260509141555 17 128 0.0 1.6 0.00 2.46 2.46 99 1014.5
20260509141051 17 128 0.0 1.6 1.07 2.46 2.46 99 1014.5
20260509140548 17 155 3.2 3.2 0.79 2.41 2.41 99 1014.5
20260509140046 17 104 0.0 0.0 0.00 2.29 2.29 99 1014.5
20260509135543 17 104 0.0 0.0 0.30 2.29 2.29 99 1014.7
20260509135041 17 104 0.0 0.0 0.30 2.29 2.29 99 1014.8
20260509134538 17 113 1.6 3.2 0.13 2.24 2.24 99 1014.4
20260509134035 17 90 0.0 0.0 0.48 2.24 2.24 99 1014.7
20260509133532 17 104 3.2 3.2 0.13 2.16 2.16 99 1014.4
20260509133030 17 104 3.2 3.2 0.30 2.16 2.16 99 1014.5
20260509132528 17 122 3.2 3.2 0.61 2.13 2.13 99 1015.0
20260509132026 17 90 1.6 3.2 0.71 2.11 2.11 99 1015.9
20260509131522 17 105 1.6 1.6 0.61 2.03 2.03 99 1015.9
20260509131019 17 102 0.0 0.0 0.30 1.98 1.98 99 1016.1
20260509130514 17 99 0.0 0.0 0.18 1.93 1.93 99 1016.1
20260509130011 17 99 0.0 0.0 0.13 1.91 1.91 99 1016.1
20260509125508 17 99 0.0 1.6 0.30 1.91 1.91 99 1016.0
20260509125004 17 49 1.6 1.6 0.18 1.85 1.85 99 1016.1
20260509124501 17 104 0.0 0.0 0.89 1.83 1.83 99 1016.5
20260509123958 17 73 0.0 0.0 0.89 1.83 1.83 99 1016.2
20260509123456 17 93 0.0 0.0 0.00 1.68 1.68 99 1015.9
20260509122951 17 93 0.0 0.0 0.00 1.68 1.68 99 1015.8
20260509122448 17 93 0.0 0.0 0.13 1.68 1.68 99 1015.8
20260509121945 17 93 0.0 0.0 2.11 1.68 1.68 99 1016.1
20260509121442 17 110 0.0 0.0 1.98 1.65 1.65 99 1016.1
20260509120940 17 97 0.0 0.0 0.00 1.32 1.32 99 1015.9
20260509120438 17 97 0.0 0.0 0.00 1.32 1.32 99 1016.0
20260509115935 17 97 0.0 0.0 0.00 1.32 1.32 99 1015.7
20260509115432 17 97 0.0 0.0 1.07 1.32 1.32 99 1015.9
20260509114930 17 101 0.0 0.0 2.46 1.14 1.14 99 1016.0
20260509114429 17 99 0.0 0.0 5.16 1.12 1.12 99 1016.0
20260509113928 17 88 0.0 1.6 4.37 0.74 0.74 99 1015.9
20260509113424 17 104 0.0 1.6 1.50 0.25 0.25 99 1015.8
20260509112921 17 107 0.0 0.0 0.00 0.00 0.00 99 1014.6
20260509112419 17 107 0.0 0.0 0.00 0.00 0.00 99 1014.0
20260509111915 17 96 0.0 0.0 0.00 0.00 0.00 99 1013.7
20260509111412 17 110 0.0 3.2 0.00 0.00 0.00 99 1013.3
20260509110910 17 106 0.0 0.0 0.00 0.00 0.00 99 1012.9
20260509110405 17 81 0.0 0.0 0.00 0.00 0.00 99 1013.1
20260509105904 17 194 1.6 1.6 0.00 0.00 0.00 99 1013.1
20260509105402 17 102 0.0 3.2 0.00 0.00 0.00 99 1012.8
20260509104859 17 126 0.0 1.6 0.00 0.00 0.00 99 1012.8
20260509104355 17 104 0.0 1.6 0.00 0.00 0.00 99 1012.9
20260509103853 17 90 0.0 1.6 0.00 0.00 0.00 99 1012.9
20260509103350 17 98 0.0 0.0 0.00 0.00 0.00 99 1013.3
20260509102849 17 100 0.0 1.6 0.00 0.00 0.00 99 1013.0
20260509102346 17 102 0.0 0.0 0.00 0.00 0.00 99 1013.1
20260509101841 17 85 0.0 1.6 0.00 0.00 0.00 99 1013.1
20260509101337 17 86 0.0 0.0 0.00 0.00 0.00 99 1013.2
20260509100836 17 90 0.0 0.0 0.00 0.00 0.00 99 1013.3
20260509100333 17 154 0.0 1.6 0.00 0.00 0.00 99 1013.2
20260509095829 17 107 0.0 0.0 0.00 0.00 0.00 99 1013.2
20260509095326 17 97 0.0 1.6 0.00 0.00 0.00 99 1013.2
20260509094824 17 69 0.0 1.6 0.00 0.00 0.00 99 1013.4
20260509094320 17 69 0.0 3.2 0.00 0.00 0.00 99 1013.2
20260509093818 17 78 0.0 0.0 0.00 0.00 0.00 99 1013.2
20260509093315 17 74 0.0 1.6 0.00 0.00 0.00 99 1013.2
20260509092814 17 94 0.0 0.0 0.00 0.00 0.00 99 1013.2
20260509092311 17 71 0.0 0.0 0.00 0.00 0.00 99 1013.1
20260509091809 17 96 0.0 0.0 0.00 0.00 0.00 99 1013.4
20260509091305 17 83 0.0 0.0 0.00 0.00 0.00 99 1013.1
20260509090803 17 88 0.0 0.0 0.00 0.00 0.00 99 1013.1
20260509090300 17 84 0.0 0.0 0.00 0.00 0.00 99 1013.1
20260509085757 17 98 0.0 0.0 0.00 0.00 0.00 99 1012.9
20260509085254 17 60 0.0 1.6 0.00 0.00 0.00 99 1012.9
20260509084751 17 67 0.0 1.6 0.00 0.00 0.00 99 1012.9
20260509084247 17 70 0.0 0.0 0.00 0.00 0.00 99 1013.1
20260509083746 17 75 0.0 0.0 0.00 0.00 0.00 99 1013.1
20260509083242 17 77 0.0 0.0 0.00 0.00 0.00 99 1013.5
20260509082738 17 90 0.0 0.0 0.00 0.00 0.00 99 1013.7
20260509082235 17 101 0.0 0.0 0.00 0.00 0.00 99 1014.0
20260509081732 17 85 0.0 0.0 0.00 0.00 0.00 99 1013.6
20260509081230 17 85 0.0 0.0 0.00 0.00 0.00 99 1014.0
20260509080728 17 90 0.0 0.0 0.00 0.00 0.00 99 1014.0
20260509080225 17 93 0.0 0.0 0.00 0.00 0.00 99 1013.7
20260509075723 17 93 0.0 0.0 0.00 0.00 0.00 99 1013.7
20260509075220 17 93 0.0 0.0 0.00 0.00 0.00 99 1013.8
20260509074717 17 88 0.0 0.0 0.00 0.00 0.00 99 1013.6
20260509074215 17 76 0.0 0.0 0.00 0.00 0.00 99 1014.0
20260509073711 17 83 0.0 0.0 0.00 0.00 0.00 99 1014.0
20260509073207 17 79 0.0 0.0 0.00 0.00 0.00 99 1014.0
20260509072704 17 95 0.0 0.0 0.00 0.00 0.00 99 1013.6
20260509072201 17 96 0.0 0.0 0.00 0.00 0.00 99 1013.6
20260509071657 17 88 0.0 0.0 0.00 0.00 0.00 99 1013.7
20260509071155 17 101 0.0 0.0 0.00 0.00 0.00 99 1013.6
20260509070651 17 101 0.0 0.0 0.00 0.00 0.00 99 1013.5
20260509070148 17 86 0.0 0.0 0.00 0.00 0.00 99 1013.7
20260509065644 17 86 0.0 0.0 0.00 0.00 0.00 99 1013.6
20260509065140 17 80 0.0 0.0 0.00 0.00 0.00 99 1013.5
20260509064637 17 94 0.0 0.0 0.00 0.00 0.00 99 1013.5
20260509064135 17 94 0.0 0.0 0.00 0.00 0.00 99 1013.8
20260509063632 17 94 0.0 0.0 0.00 0.00 0.00 99 1013.8
20260509063128 17 96 0.0 0.0 0.00 0.00 0.00 99 1014.0
20260509062626 17 97 0.0 0.0 0.00 0.00 0.00 99 1014.2
20260509062122 17 88 0.0 0.0 0.00 0.00 0.00 99 1014.2
20260509061619 17 99 0.0 0.0 0.00 0.00 0.00 99 1014.3
20260509061117 17 101 0.0 0.0 0.00 0.00 0.00 99 1014.4
20260509060615 17 91 0.0 0.0 0.00 0.00 0.00 99 1014.5
20260509060110 17 91 0.0 0.0 0.00 0.00 0.00 99 1014.5
20260509055606 17 92 0.0 0.0 0.00 0.00 0.00 99 1014.5
20260509055102 17 88 0.0 0.0 0.00 0.00 0.00 99 1014.6
20260509054559 17 95 0.0 0.0 0.00 0.00 0.00 99 1014.7
20260509054057 17 94 0.0 0.0 0.00 0.00 0.00 99 1014.5
20260509053555 17 93 0.0 0.0 0.00 0.00 0.00 99 1014.6
20260509053051 17 85 0.0 0.0 0.00 0.00 0.00 99 1014.7
20260509052549 17 86 0.0 0.0 0.00 0.00 0.00 99 1014.7
20260509052047 17 100 0.0 0.0 0.00 0.00 0.00 99 1014.7
20260509051545 17 98 1.6 3.2 0.00 0.00 0.00 99 1014.6
20260509051041 17 99 0.0 0.0 0.00 0.00 0.00 99 1014.8
20260509050538 17 85 0.0 1.6 0.00 0.00 0.00 99 1014.7
20260509050035 17 92 0.0 0.0 0.00 1.24 1.24 99 1014.2
20260509045532 17 99 0.0 0.0 0.00 1.24 1.24 99 1014.2
20260509045029 17 105 0.0 1.6 0.00 1.24 1.24 99 1014.4
20260509044527 16 90 0.0 0.0 0.00 1.24 1.24 99 1014.4
20260509044024 16 89 0.0 1.6 0.00 1.24 1.24 99 1014.4
20260509043520 17 96 0.0 0.0 0.00 1.24 1.24 99 1014.3
20260509043016 17 104 0.0 0.0 0.00 1.24 1.24 99 1014.4
20260509042512 17 108 0.0 1.6 0.00 1.24 1.24 99 1014.3
20260509042009 16 73 0.0 0.0 0.00 1.24 1.24 99 1014.6
20260509041505 16 104 0.0 0.0 0.00 1.24 1.24 99 1014.5
20260509041003 16 88 0.0 0.0 0.00 1.24 1.24 99 1014.7
20260509040501 16 95 1.6 1.6 0.00 1.24 1.24 99 1014.9
20260509035957 16 98 0.0 0.0 0.00 1.24 1.24 99 1014.8
20260509035454 16 100 0.0 0.0 0.00 1.24 1.24 99 1014.8
20260509034951 16 103 0.0 1.6 0.00 1.24 1.24 99 1014.8
20260509034449 16 94 0.0 0.0 0.00 1.24 1.24 99 1015.0
20260509033946 16 84 0.0 1.6 0.00 1.24 1.24 99 1014.7
20260509033443 16 117 0.0 0.0 0.00 1.24 1.24 99 1014.9
20260509032939 16 99 0.0 0.0 0.00 1.24 1.24 99 1015.0
20260509032437 16 100 0.0 0.0 0.00 1.24 1.24 99 1014.7
20260509031935 16 97 0.0 0.0 0.00 1.24 1.24 99 1014.7
20260509031432 16 102 3.2 3.2 0.00 1.24 1.24 99 1014.5
20260509030929 16 104 0.0 1.6 0.00 1.24 1.24 99 1014.5
20260509030427 16 98 0.0 1.6 0.00 1.24 1.24 99 1014.4
20260509025924 16 107 0.0 1.6 0.00 1.24 1.24 99 1014.3
20260509025419 16 97 0.0 0.0 0.00 1.24 1.24 99 1014.5
20260509024915 16 97 0.0 0.0 0.00 1.24 1.24 99 1014.6
20260509024411 16 105 0.0 1.6 0.00 1.24 1.24 99 1014.7
20260509023908 16 99 0.0 0.0 0.00 1.24 1.24 99 1014.5
20260509023406 16 96 0.0 0.0 0.00 1.24 1.24 99 1014.3
20260509022902 16 105 0.0 0.0 0.00 1.24 1.24 99 1014.7
20260509022359 16 110 0.0 0.0 0.00 1.24 1.24 99 1014.2
20260509021856 16 82 0.0 0.0 0.00 1.24 1.24 99 1014.3
20260509021353 16 90 0.0 0.0 0.00 1.24 1.24 99 1014.6
20260509020851 16 93 0.0 0.0 0.00 1.24 1.24 99 1014.0
20260509020349 16 106 0.0 0.0 0.00 1.24 1.24 99 1014.1
20260509015846 16 94 1.6 1.6 0.00 1.24 1.24 99 1014.3
20260509015344 16 67 0.0 1.6 0.00 1.24 1.24 99 1014.3
20260509014840 16 88 0.0 0.0 0.00 1.24 1.24 99 1013.7
20260509014337 16 75 0.0 0.0 0.00 1.24 1.24 99 1014.2
20260509013834 16 44 1.6 1.6 0.00 1.24 1.24 99 1014.3
20260509013330 16 92 1.6 1.6 0.00 1.24 1.24 99 1014.0
20260509012826 16 40 1.6 1.6 0.00 1.24 1.24 99 1014.3
20260509012323 17 71 0.0 0.0 0.00 1.24 1.24 99 1014.1
20260509011821 17 50 0.0 1.6 0.00 1.24 1.24 99 1014.5
20260509011318 17 81 0.0 0.0 0.00 1.24 1.24 99 1014.6
20260509010815 17 61 0.0 1.6 0.00 1.24 1.24 99 1014.6
20260509010313 17 77 0.0 0.0 0.00 1.24 1.24 99 1014.5
20260509005810 17 78 0.0 1.6 0.00 1.24 1.24 99 1014.2
20260509005308 17 86 0.0 0.0 0.00 1.24 1.24 99 1014.0
20260509004808 17 79 0.0 0.0 0.00 1.24 1.24 99 1014.7
20260509004304 17 84 0.0 0.0 0.00 1.24 1.24 99 1014.7
20260509003802 17 85 0.0 0.0 0.00 1.24 1.24 99 1014.7
20260509003300 17 73 0.0 1.6 0.00 1.24 1.24 99 1014.6
20260509002757 17 81 0.0 0.0 0.00 1.24 1.24 99 1014.6
20260509002254 17 83 0.0 1.6 0.00 1.24 1.24 99 1014.6
20260509001752 17 80 0.0 0.0 0.00 1.24 1.24 99 1014.3
20260509001247 17 80 0.0 1.6 0.00 1.24 1.24 99 1014.6
20260509000745 17 83 0.0 0.0 0.00 1.24 1.24 99 1014.2
20260509000242 17 81 0.0 0.0 0.00 1.24 1.24 99 1014.5
20260508235739 17 87 0.0 0.0 0.00 1.24 1.24 99 1014.6
20260508235236 17 92 0.0 0.0 0.00 1.24 1.24 99 1014.5
20260508234733 17 83 0.0 0.0 0.00 1.24 1.24 99 1014.5
20260508234229 17 79 0.0 0.0 0.00 1.24 1.24 99 1014.6
20260508233729 17 85 0.0 1.6 0.00 1.24 1.24 99 1014.3
20260508233227 17 88 0.0 0.0 0.00 1.24 1.24 99 1014.5
20260508232724 17 94 0.0 0.0 0.00 1.24 1.24 99 1014.9
20260508232220 17 98 0.0 0.0 0.00 1.24 1.24 99 1014.8
20260508231718 17 85 0.0 0.0 0.00 1.24 1.24 99 1014.6
20260508231215 17 73 0.0 0.0 0.00 1.24 1.24 99 1014.8
20260508230712 17 71 0.0 0.0 0.00 1.24 1.24 99 1014.3
20260508230208 17 92 0.0 0.0 0.00 1.24 1.24 99 1014.5
20260508225706 17 87 0.0 0.0 0.00 1.24 1.24 99 1014.5
20260508225201 17 81 0.0 0.0 0.00 1.24 1.24 99 1014.5
20260508224700 17 97 0.0 0.0 0.00 1.24 1.24 99 1014.7
20260508224157 17 98 0.0 0.0 0.00 1.24 1.24 99 1014.6
20260508223655 17 82 0.0 0.0 0.00 1.24 1.24 99 1014.4
20260508223152 16 63 0.0 1.6 0.18 1.24 1.24 99 1014.8
20260508222649 16 63 0.0 1.6 0.36 1.24 1.24 99 1014.6
20260508222146 16 285 3.2 4.8 0.18 1.22 1.22 99 1013.7
20260508221642 16 84 0.0 0.0 0.00 1.19 1.19 99 1014.1
20260508221138 16 115 1.6 1.6 0.00 1.19 1.19 99 1014.0
20260508220635 16 99 0.0 1.6 0.00 1.19 1.19 99 1014.6
20260508220132 16 107 0.0 0.0 0.00 1.19 1.19 99 1015.0
20260508215628 16 84 0.0 0.0 0.00 1.19 1.19 99 1015.1
20260508215125 16 70 0.0 1.6 0.00 1.19 1.19 99 1015.4
20260508214622 16 107 0.0 1.6 0.00 1.19 1.19 99 1015.7
20260508214119 16 77 1.6 3.2 0.00 1.19 1.19 99 1014.8
20260508213616 16 94 0.0 3.2 0.00 1.19 1.19 99 1014.0
20260508213112 16 64 4.8 6.4 0.00 1.19 1.19 99 1013.6
20260508212609 16 132 0.0 4.8 0.13 1.19 1.19 99 1014.1
20260508212105 16 46 1.6 3.2 0.00 1.17 1.17 99 1014.5
20260508211600 16 122 0.0 0.0 0.18 1.17 1.17 99 1015.3
20260508211057 16 93 0.0 1.6 0.18 1.17 1.17 99 1015.1
20260508210553 16 104 0.0 4.8 0.13 1.14 1.14 99 1015.3
20260508210051 16 128 3.2 6.4 2.69 1.14 1.14 99 1015.4
20260508205548 16 97 3.2 3.2 2.59 1.12 1.12 99 1015.8
20260508205044 -17 0.0 0.0 0.00 0.00 0.00 1016.8
20260508204541 -17 0.0 0.0 0.00 0.00 0.00 1017.6
20260508204037 -17 0.0 0.0 0.00 0.00 0.00 1017.6
20260508203533 -17 0.0 0.0 0.00 0.00 0.00 1017.6
20260508203029 -17 0.0 0.0 0.00 0.00 0.00 1017.7
20260508202526 -17 0.0 0.0 0.00 0.00 0.00 1017.4
20260508202023 -17 0.0 0.0 0.00 0.00 0.00 1017.4
20260508201520 -17 0.0 0.0 0.00 0.00 0.00 1017.2
20260508201016 -17 0.0 0.0 0.00 0.00 0.00 1016.9
20260508200514 -17 0.0 0.0 0.00 0.00 0.00 1017.5
20260508200009 -17 0.0 0.0 0.00 0.00 0.00 1017.1
20260508195506 16 75 1.6 1.6 0.00 0.69 0.69 99 1016.9
20260508195002 16 75 1.6 1.6 0.00 0.69 0.69 99 1017.0
20260508194459 16 75 1.6 1.6 0.00 0.69 0.69 99 1017.0
20260508193956 16 75 1.6 1.6 0.00 0.69 0.69 99 1016.9
20260508193453 16 75 1.6 1.6 0.00 0.69 0.69 99 1016.7